Location: Peterborough
(44.3091°N, 78.3197°W)
Time: 05:47:12
(UTC-04:00)

Vanguard 3 - Pass Details

Date: 01 March 2024
Orbit: 510 x 3236 km, 33.3° (Epoch: 12 April)

Event Time Altitude Azimuth Distance (km) Brightness Sun altitude
Rises 20:35:55 0° 248° (WSW) 6,513 12.5 -28.0°
Reaches altitude 10° 20:39:58 10° 245° (WSW) 5,738 12.0 -28.6°
Maximum altitude 20:58:13 58° 173° (S) 3,582 10.1 -31.7°
Enters shadow 21:04:00 47° 128° (SE) 3,819 10.0 -32.6°
Drops below altitude 10° 21:15:39 10° 101° (E) 5,518 - -34.5°
Sets 21:19:27 0° 98° (E) 6,261 - -35.1°
